This is the latest recevied weather packets stored in our database for station/object ES2ADF-5. If no packets are shown the sender has not sent any weather packets the latest 10 day(s).
| Time | Temp. | Humidity | Pressure | Rain* | Wind** | Luminosity | Snow |
|---|---|---|---|---|---|---|---|
| 1777712176 | 17.78° C | 45% | 1012.7 hPa | 0 mm | - | - | - |
| 1777711875 | 17.78° C | 45% | 1012.8 hPa | 0 mm | - | - | - |
| 1777711575 | 17.78° C | 43% | 1012.8 hPa | 0 mm | - | - | - |
| 1777711275 | 17.78° C | 42% | 1012.8 hPa | 0 mm | - | - | - |
| 1777710974 | 17.78° C | 42% | 1012.7 hPa | 0 mm | - | - | - |
| 1777710674 | 17.78° C | 42% | 1012.8 hPa | 0 mm | - | - | - |
| 1777710374 | 17.78° C | 43% | 1013 hPa | 0 mm | - | - | - |
| 1777710074 | 17.22° C | 43% | 1012.9 hPa | 0 mm | - | - | - |
| 1777709773 | 17.22° C | 43% | 1013 hPa | 0 mm | - | - | - |
| 1777709473 | 17.22° C | 43% | 1013.1 hPa | 0 mm | - | - | - |
| 1777709173 | 17.22° C | 43% | 1013 hPa | 0 mm | - | - | - |
| 1777708873 | 17.22° C | 43% | 1012.9 hPa | 0 mm | - | - | - |
| 1777708572 | 17.22° C | 43% | 1012.8 hPa | 0 mm | - | - | - |
| 1777708272 | 17.22° C | 43% | 1013 hPa | 0 mm | - | - | - |
| 1777707671 | 17.22° C | 43% | 1013 hPa | 0 mm | - | - | - |
| 1777707371 | 17.22° C | 42% | 1012.9 hPa | 0 mm | - | - | - |
| 1777707071 | 17.22° C | 43% | 1012.7 hPa | 0 mm | - | - | - |
| 1777706770 | 17.78° C | 41% | 1012.9 hPa | 0 mm | - | - | - |
| 1777706470 | 17.78° C | 40% | 1012.9 hPa | 0 mm | - | - | - |
| 1777706170 | 19.44° C | 39% | 1012.9 hPa | 0 mm | - | - | - |
| 1777705870 | 20.56° C | 37% | 1012.9 hPa | 0 mm | - | - | - |
| 1777705569 | 20.56° C | 36% | 1012.9 hPa | 0 mm | - | - | - |
| 1777705269 | 22.22° C | 34% | 1013 hPa | 0 mm | - | - | - |
| 1777704969 | 23.33° C | 34% | 1012.8 hPa | 0 mm | - | - | - |
| 1777704669 | 23.33° C | 35% | 1012.8 hPa | 0 mm | - | - | - |
* Rain latest hour (hover to see other rain measurements)
** Current wind speed in m/s (hover to see current wind gust speed)